logo tempoitalia

Diretta Meteo Iasi, Romanialunedì 31 agosto ore 08:00

Mappa
Sereno 19 °C Sereno 24 Ore: T.min 18 T.max 30
Ponente Est Km/h 11.1 Punto di rugiada: 11 °C Umidità: 59% Visibilità: 10 Km
Il sole sorge alle: 06:27 Il sole tramonta alle: 19:52
31 Agosto 2026 08:00 tempo osservato: Sereno Sereno 19 59 1018 vento: Nord E 11.1
31 Agosto 2026 07:30 tempo osservato: Sereno Sereno 18 63 1018 vento: Nord E 11.1
31 Agosto 2026 07:00 tempo osservato: Sereno Sereno 18 63 1018 vento: Nord E 13
31 Agosto 2026 06:30 tempo osservato: Sereno Sereno 18 63 1018 vento: Nord E 11.1
31 Agosto 2026 06:00 tempo osservato: Sereno Sereno 19 55 1017 vento: Nord E 9.3
31 Agosto 2026 05:30 tempo osservato: Sereno Sereno 19 55 1018 vento: Nord E 7.4
31 Agosto 2026 05:00 tempo osservato: Sereno Sereno 20 52 1018 vento: Nord E 11.1
31 Agosto 2026 04:30 tempo osservato: Sereno Sereno 20 52 1018 vento: Nord E 9.3
31 Agosto 2026 04:00 tempo osservato: Sereno Sereno 21 49 1018 vento: Nord N 3.7
31 Agosto 2026 03:30 tempo osservato: Sereno Sereno 21 49 1018 vento: Nord S/SE 7.4
31 Agosto 2026 03:00 tempo osservato: Sereno Sereno 22 46 1018 vento: Nord S/SE 9.3
31 Agosto 2026 02:30 tempo osservato: Sereno Sereno 23 43 1018 vento: Nord S/SE 9.3
31 Agosto 2026 02:00 tempo osservato: Sereno Sereno 22 49 1018 vento: Nord S/SE 11.1
31 Agosto 2026 01:30 tempo osservato: Sereno Sereno 22 49 1018 vento: Nord S/SE 9.3
31 Agosto 2026 01:00 tempo osservato: Sereno Sereno 22 53 1018 vento: Nord E/SE 9.3
31 Agosto 2026 00:30 tempo osservato: Sereno Sereno 21 56 1018 vento: Nord E 13
31 Agosto 2026 00:00 tempo osservato: Sereno Sereno 21 56 1018 vento: Nord E 13
30 Agosto 2026 23:30 tempo osservato: Sereno Sereno 21 56 1018 vento: Nord E 11.1
30 Agosto 2026 23:00 tempo osservato: Sereno Sereno 24 43 1017 vento: Nord N 3.7
30 Agosto 2026 22:30 tempo osservato: Sereno Sereno 24 43 1017 vento: Nord N 1.8
30 Agosto 2026 22:00 tempo osservato: Sereno Sereno 24 43 1017 vento: Nord N 3.7
30 Agosto 2026 21:30 tempo osservato: Sereno Sereno 25 41 1017 vento: Nord N 5.5
30 Agosto 2026 21:00 tempo osservato: Sereno Sereno 25 41 1017 vento: Nord S/SE 7.4
30 Agosto 2026 20:30 tempo osservato: Sereno Sereno 26 39 1017 vento: Nord S 11.1
30 Agosto 2026 20:00 tempo osservato: Sereno Sereno 26 44 1017 vento: Nord S/SE 11.1
30 Agosto 2026 19:30 tempo osservato: Sereno Sereno 27 44 1016 vento: Nord E/SE 11.1
30 Agosto 2026 19:00 tempo osservato: Sereno Sereno 27 44 1016 vento: Nord SE 14.8
30 Agosto 2026 18:30 tempo osservato: Sereno Sereno 28 39 1017 vento: Nord SE 16.7
30 Agosto 2026 18:00 tempo osservato: Sereno Sereno 29 37 1017 vento: Nord SE 18.5
30 Agosto 2026 17:30 tempo osservato: Sereno Sereno 29 37 1016 vento: Nord S/SE 18.5
30 Agosto 2026 17:00 tempo osservato: Sereno Sereno 30 35 1016 vento: Nord S 9.3
30 Agosto 2026 16:30 tempo osservato: Sereno Sereno 30 37 1017 vento: Nord S/SE 11.1
30 Agosto 2026 16:00 tempo osservato: Sereno Sereno 30 35 1017 vento: Nord S 9.3
30 Agosto 2026 15:30 tempo osservato: Sereno Sereno 29 37 1017 vento: Nord S 13
30 Agosto 2026 15:00 tempo osservato: Sereno Sereno 29 37 1017 vento: Nord S/SO 7.4
30 Agosto 2026 14:30 tempo osservato: Sereno Sereno 29 37 1017 vento: Nord N 11.1
30 Agosto 2026 14:00 tempo osservato: Sereno Sereno 28 42 1018 vento: Nord E 11.1
30 Agosto 2026 13:30 tempo osservato: Sereno Sereno 28 45 1018 vento: Nord N 3.7
30 Agosto 2026 13:00 tempo osservato: Sereno Sereno 27 47 1018 vento: Nord N 7.4
30 Agosto 2026 12:30 tempo osservato: Sereno Sereno 26 50 1018 vento: Nord SE 7.4
30 Agosto 2026 12:00 tempo osservato: Sereno Sereno 25 53 1019 vento: Nord E 9.3
30 Agosto 2026 11:30 tempo osservato: Sereno Sereno 25 53 1019 vento: Nord N 5.5
30 Agosto 2026 11:00 tempo osservato: Sereno Sereno 24 57 1019 vento: Nord N 3.7
30 Agosto 2026 10:30 tempo osservato: Sereno Sereno 23 60 1019 vento: Nord N 3.7
30 Agosto 2026 10:00 tempo osservato: Sereno Sereno 22 64 1019 vento: Nord N 3.7
30 Agosto 2026 09:30 tempo osservato: Sereno Sereno 21 64 1018 vento: Nord N 5.5
30 Agosto 2026 09:00 tempo osservato: Sereno Sereno 19 77 1018 vento: Nord N 5.5